KC0VVH Weather Reports


time (UTC)temp
C
wind
direction
speed
KPH
gust
KPH
rain 1hr
cm
rain 24hr
cm
rain mn
cm
humidity
%
barometer
mb
20260510190003 24 59 4.8 14.5 0.00 0.00 0.00 11 1017.9
20260510185403 23 65 4.8 12.9 0.00 0.00 0.00 15 1017.9
20260510184503 23 184 4.8 12.9 0.00 0.00 0.00 13 1017.9
20260510183624 24 44 1.6 8.0 0.00 0.00 0.00 13 1017.9
20260510182703 24 37 4.8 14.5 0.00 0.00 0.00 13 1017.9
20260510181803 23 352 4.8 12.9 0.00 0.00 0.00 15 1017.9
20260510180903 23 353 4.8 17.7 0.00 0.00 0.00 14 1017.9
20260510180003 23 22 6.4 17.7 0.00 0.00 0.00 14 1017.9
20260510175403 23 40 6.4 17.7 0.00 0.00 0.00 15 1017.9
20260510174503 23 51 3.2 9.7 0.00 0.00 0.00 14 1017.9
20260510173603 23 43 6.4 14.5 0.00 0.00 0.00 15 1017.9
20260510172724 22 22 1.6 11.3 0.00 0.00 0.00 15 1017.9
20260510171824 22 18 3.2 11.3 0.00 0.00 0.00 14 1017.9
20260510170903 22 17 1.6 11.3 0.00 0.00 0.00 15 1017.9
20260510170003 22 18 3.2 12.9 0.00 0.00 0.00 16 1017.9
20260510165403 22 21 3.2 12.9 0.00 0.00 0.00 16 1017.9
20260510164503 22 23 3.2 9.7 0.00 0.00 0.00 16 1017.9
20260510163603 21 19 1.6 6.4 0.00 0.00 0.00 17 1017.9
20260510162703 21 17 3.2 8.0 0.00 0.00 0.00 17 1017.9
20260510161803 21 19 1.6 11.3 0.00 0.00 0.00 16 1017.9
20260510160903 21 24 0.0 6.4 0.00 0.00 0.00 18 1017.9
20260510160003 20 25 0.0 6.4 0.00 0.00 0.00 18 1017.9
20260510155403 20 26 0.0 6.4 0.00 0.00 0.00 18 1017.9
20260510154502 20 26 0.0 8.0 0.00 0.00 0.00 20 1017.9
20260510153603 19 0 0.0 0.0 0.00 0.00 0.00 21 1017.9
20260510152703 19 0 0.0 0.0 0.00 0.00 0.00 20 1017.9
20260510151803 19 0 0.0 0.0 0.00 0.00 0.00 23 1017.9
20260510150903 18 0 0.0 0.0 0.00 0.00 0.00 23 1017.9
20260510150003 18 26 1.6 8.0 0.00 0.00 0.00 25 1017.9
20260510145403 18 26 3.2 12.9 0.00 0.00 0.00 26 1017.9
20260510144503 18 26 1.6 12.9 0.00 0.00 0.00 28 1017.9
20260510143603 17 27 3.2 12.9 0.00 0.00 0.00 27 1017.9
20260510142703 17 26 0.0 6.4 0.00 0.00 0.00 28 1017.9
20260510141803 16 27 0.0 6.4 0.00 0.00 0.00 30 1017.9
20260510140924 16 27 0.0 6.4 0.00 0.00 0.00 32 1017.9
20260510140024 16 27 1.6 8.0 0.00 0.00 0.00 33 1017.9
20260510135403 15 25 1.6 8.0 0.00 0.00 0.00 31 1017.9
20260510134524 15 0 0.0 1.6 0.00 0.00 0.00 35 1017.9
20260510133603 16 298 0.0 4.8 0.00 0.00 0.00 30 1017.9
20260510132724 16 0 0.0 0.0 0.00 0.00 0.00 29 1017.9
20260510131803 16 298 0.0 6.4 0.00 0.00 0.00 28 1017.9
20260510130903 15 0 0.0 0.0 0.00 0.00 0.00 27 1017.9
20260510130003 15 298 0.0 4.8 0.00 0.00 0.00 27 1017.9
20260510125403 14 0 0.0 0.0 0.00 0.00 0.00 28 1017.9
20260510124503 14 0 0.0 0.0 0.00 0.00 0.00 28 1017.9
20260510123624 14 298 0.0 6.4 0.00 0.00 0.00 28 1017.9
20260510122703 13 298 0.0 4.8 0.00 0.00 0.00 29 1017.9
20260510121803 13 298 0.0 8.0 0.00 0.00 0.00 29 1017.9
20260510120924 13 298 0.0 6.4 0.00 0.00 0.00 29 1017.9
20260510120003 13 298 0.0 6.4 0.00 0.00 0.00 29 1017.9
20260510115403 13 298 0.0 8.0 0.00 0.00 0.00 29 1017.9
20260510114503 13 298 0.0 6.4 0.00 0.00 0.00 30 1017.9
20260510113603 13 299 0.0 6.4 0.00 0.00 0.00 30 1017.9
20260510112703 13 0 0.0 0.0 0.00 0.00 0.00 30 1017.9
20260510111824 13 300 0.0 8.0 0.00 0.00 0.00 30 1017.9
20260510110903 13 243 0.0 9.7 0.00 0.00 0.00 30 1017.9
20260510110003 13 280 0.0 6.4 0.00 0.00 0.00 30 1017.9
20260510105424 13 280 0.0 6.4 0.00 0.00 0.00 30 1017.9
20260510104503 14 288 0.0 9.7 0.00 0.00 0.00 30 1017.9
20260510103603 14 290 0.0 4.8 0.00 0.00 0.00 29 1017.9
20260510102703 14 290 1.6 11.3 0.00 0.00 0.00 30 1017.9
20260510101803 14 286 0.0 4.8 0.00 0.00 0.00 30 1017.9
20260510100903 14 286 0.0 6.4 0.00 0.00 0.00 29 1017.9
20260510100003 14 286 0.0 6.4 0.00 0.00 0.00 29 1017.9
20260510095424 14 290 0.0 6.4 0.00 0.00 0.00 30 1017.9
20260510094524 14 11 0.0 6.4 0.00 0.00 0.00 30 1017.9
20260510093603 14 0 0.0 0.0 0.00 0.00 0.00 31 1017.9
20260510092703 13 0 0.0 0.0 0.00 0.00 0.00 32 1017.9
20260510091803 13 0 0.0 0.0 0.00 0.00 0.00 32 1017.9
20260510090903 13 0 0.0 0.0 0.00 0.00 0.00 33 1017.9
20260510090003 13 0 0.0 0.0 0.00 0.00 0.00 33 1017.9
20260510085403 13 0 0.0 0.0 0.00 0.00 0.00 34 1017.9
20260510084524 13 0 0.0 0.0 0.00 0.00 0.00 35 1017.9
20260510083603 12 0 0.0 0.0 0.00 0.00 0.00 35 1017.9
20260510082703 12 0 0.0 0.0 0.00 0.00 0.00 35 1017.9
20260510081803 12 0 0.0 0.0 0.00 0.00 0.00 35 1017.9
20260510080903 12 0 0.0 0.0 0.00 0.00 0.00 34 1017.9
20260510080003 13 0 0.0 0.0 0.00 0.00 0.00 34 1017.9
20260510075424 13 0 0.0 0.0 0.00 0.00 0.00 34 1017.9
20260510074503 13 0 0.0 0.0 0.00 0.00 0.00 32 1017.9
20260510073603 13 0 0.0 0.0 0.00 0.00 0.00 32 1017.9
20260510072703 13 0 0.0 0.0 0.00 0.00 0.00 32 1017.9
20260510071803 14 11 0.0 3.2 0.00 0.00 0.00 31 1017.9
20260510070903 14 0 0.0 0.0 0.00 0.00 0.00 30 1017.9
20260510070003 15 0 0.0 0.0 0.00 0.00 0.00 29 1017.9
20260510065403 15 0 0.0 0.0 0.00 0.00 0.00 28 1017.9
20260510064503 15 0 0.0 0.0 0.00 0.00 0.00 28 1017.9
20260510063603 15 0 0.0 0.0 0.00 0.00 0.00 27 1017.9
20260510062703 16 0 0.0 0.0 0.00 0.00 0.00 24 1017.9
20260510061803 16 0 0.0 0.0 0.00 0.00 0.00 24 1017.9
20260510060903 17 11 0.0 3.2 0.00 0.00 0.00 21 1017.9
20260510060024 17 11 0.0 3.2 0.00 0.00 0.00 19 1017.9
20260510055403 17 0 0.0 0.0 0.00 0.00 0.00 17 1017.9
20260510054503 17 0 0.0 0.0 0.00 0.00 0.00 15 1017.9
20260510053624 18 0 0.0 0.0 0.00 0.00 0.00 13 1017.9
20260510052703 19 15 1.6 17.7 0.00 0.00 0.00 11 1017.9
20260510051803 20 303 1.6 9.7 0.00 0.00 0.00 9 1017.9
20260510050903 21 286 3.2 19.3 0.00 0.00 0.00 8 1017.9
20260510050003 21 302 3.2 17.7 0.00 0.00 0.00 8 1017.9
20260510045403 21 305 1.6 12.9 0.00 0.00 0.00 8 1017.9
20260510044503 21 299 0.0 11.3 0.00 0.00 0.00 8 1017.9
20260510043624 21 263 0.0 8.0 0.00 0.00 0.00 7 1017.9
20260510042703 21 291 3.2 19.3 0.00 0.00 0.00 7 1017.9
20260510041824 21 277 3.2 19.3 0.00 0.00 0.00 6 1017.9
20260510040924 22 288 3.2 17.7 0.00 0.00 0.00 6 1017.9
20260510040003 22 296 1.6 9.7 0.00 0.00 0.00 6 1017.9
20260510035403 22 276 1.6 20.9 0.00 0.00 0.00 6 1017.9
20260510034503 22 291 1.6 14.5 0.00 0.00 0.00 5 1017.9
20260510033603 22 298 3.2 24.1 0.00 0.00 0.00 5 1017.9
20260510032724 22 282 4.8 22.5 0.00 0.00 0.00 5 1017.9
20260510031803 22 301 1.6 14.5 0.00 0.00 0.00 4 1017.9
20260510030903 22 298 3.2 16.1 0.00 0.00 0.00 4 1017.9
20260510030003 23 289 3.2 22.5 0.00 0.00 0.00 5 1017.9
20260510025403 23 305 3.2 22.5 0.00 0.00 0.00 5 1017.9
20260510024503 23 300 3.2 19.3 0.00 0.00 0.00 5 1017.9
20260510023603 23 294 1.6 14.5 0.00 0.00 0.00 6 1017.9
20260510022703 23 303 3.2 14.5 0.00 0.00 0.00 6 1017.9
20260510021824 24 301 3.2 20.9 0.00 0.00 0.00 6 1017.9
20260510020903 24 275 1.6 20.9 0.00 0.00 0.00 5 1017.9
20260510020003 24 23 0.0 4.8 0.00 0.00 0.00 5 1017.9
20260510015403 24 23 0.0 4.8 0.00 0.00 0.00 4 1017.9
20260510014503 24 23 0.0 4.8 0.00 0.00 0.00 4 1017.9
20260510013624 24 0 0.0 3.2 0.00 0.00 0.00 5 1017.9
20260510012703 25 24 1.6 9.7 0.00 0.00 0.00 5 1017.9
20260510011803 25 26 0.0 6.4 0.00 0.00 0.00 6 1017.9
20260510010924 25 26 0.0 4.8 0.00 0.00 0.00 7 1017.9
20260510010003 25 0 0.0 0.0 0.00 0.00 0.00 8 1017.9
20260510005403 25 0 0.0 0.0 0.00 0.00 0.00 7 1017.9
20260510004503 25 21 0.0 4.8 0.00 0.00 0.00 7 1017.9
20260510003603 26 13 1.6 12.9 0.00 0.00 0.00 7 1017.9
20260510002703 26 22 3.2 12.9 0.00 0.00 0.00 6 1017.9
20260510001803 27 10 3.2 14.5 0.00 0.00 0.00 7 1017.9
20260510000924 27 19 6.4 19.3 0.00 0.00 0.00 5 1017.9
20260510000003 27 11 6.4 22.5 0.00 0.00 0.00 6 1017.9
20260509235403 27 18 4.8 14.5 0.00 0.00 0.00 6 1017.9
20260509234503 27 19 1.6 16.1 0.00 0.00 0.00 6 1017.9
20260509233603 27 9 3.2 16.1 0.00 0.00 0.00 5 1017.9
20260509232703 28 343 3.2 14.5 0.00 0.00 0.00 4 1017.9
20260509231803 28 355 1.6 17.7 0.00 0.00 0.00 5 1017.9
20260509230903 28 360 4.8 17.7 0.00 0.00 0.00 5 1017.9
20260509230003 28 345 3.2 17.7 0.00 0.00 0.00 4 1017.9
20260509225403 28 304 3.2 17.7 0.00 0.00 0.00 5 1017.9
20260509224503 28 221 4.8 20.9 0.00 0.00 0.00 4 1017.9
20260509223603 28 262 3.2 16.1 0.00 0.00 0.00 4 1017.9
20260509222703 28 210 3.2 20.9 0.00 0.00 0.00 6 1017.9
20260509221803 28 266 1.6 14.5 0.00 0.00 0.00 6 1017.9
20260509220903 28 206 4.8 30.6 0.00 0.00 0.00 6 1017.9
20260509220003 29 308 1.6 16.1 0.00 0.00 0.00 6 1017.9
20260509215403 28 338 4.8 24.1 0.00 0.00 0.00 7 1017.9
20260509214503 28 337 4.8 19.3 0.00 0.00 0.00 6 1017.9
20260509213603 28 323 4.8 24.1 0.00 0.00 0.00 7 1017.9
20260509212703 27 293 4.8 17.7 0.00 0.00 0.00 7 1017.9
20260509211824 28 317 4.8 20.9 0.00 0.00 0.00 8 1017.9
20260509210903 28 2 9.7 29.0 0.00 0.00 0.00 8 1017.9
20260509210024 28 354 4.8 14.5 0.00 0.00 0.00 8 1017.9
20260509205403 28 332 3.2 16.1 0.00 0.00 0.00 8 1017.9
20260509204503 28 307 4.8 17.7 0.00 0.00 0.00 9 1017.9
20260509202703 27 333 6.4 22.5 0.00 0.00 0.00 9 1017.9
20260509201803 28 324 8.0 29.0 0.00 0.00 0.00 8 1017.9
20260509200903 28 2 4.8 17.7 0.00 0.00 0.00 10 1017.9
20260509200024 28 308 3.2 16.1 0.00 0.00 0.00 10 1017.9
20260509195403 27 298 6.4 17.7 0.00 0.00 0.00 10 1017.9
20260509194503 28 356 4.8 22.5 0.00 0.00 0.00 10 1017.9
20260509193603 28 356 4.8 19.3 0.00 0.00 0.00 9 1017.9
20260509192703 28 333 8.0 22.5 0.00 0.00 0.00 9 1017.9
20260509191803 28 346 6.4 22.5 0.00 0.00 0.00 10 1017.9
20260509190903 27 304 3.2 14.5 0.00 0.00 0.00 10 1017.9